Tracking 34142 objects as of 18-May-2026
HD Live streaming from Space Station
objects crossing your sky now

KUIPER-00370

Track KUIPER-00370 now!
10-day predictions
KUIPER-00370 is classified as:


NORAD ID: 68919
Int'l Code: 2026-098A
Perigee: 467.8 km
Apogee: 489.7 km
Inclination: 51.9 °
Period: 94.0 minutes
Semi major axis: 6849 km
RCS: Unknown
Launch date: April 30, 2026
Source: United States (US)
Launch site: AIR FORCE EASTERN TEST RANGE (AFETR)
Your satellite tracking list
Your tracking list is empty




NASA's NSSDC Master Catalog

Two Line Element Set (TLE):
1 68919U 26098A   26137.83335647 -.00034968  00000-0 -11248-2 0  9996
2 68919  51.8726 214.2365 0015945  46.5101 229.7557 15.31400628  3615
Source of the keplerian elements: AFSPC